AXM5143 WMKN-WMKJ

Flight info

Callsign AXM5143
Flight time 0h 48m
Altitude 29000
Route LASOB1A LASOB Y346 LATER Y514 NUFFA DCT BIKTA B469 VMR A224 ADLOV
Aircraft A320/M-SDE3FGHIRWY/LB1

Departure

Time 2026-05-05 09:03
Airport Sultan Mahmud Airport (WMKN)

Arrival

Time 2026-05-05 09:52
Airport Senai International Airport (WMKJ)
Time Latitude Longitude Altitude Speed Heading
2026-05-05 08:25 5.38019 103.10477 31 ft 0 kts 135°
2026-05-05 08:48 5.38020 103.10477 25 ft 0 kts 135°
2026-05-05 08:49 5.38035 103.10461 30 ft 4 kts 135°
2026-05-05 08:49 5.38053 103.10442 26 ft 3 kts 135°
2026-05-05 08:49 5.38070 103.10428 27 ft 4 kts 161°
2026-05-05 08:49 5.38093 103.10428 28 ft 4 kts 215°
2026-05-05 08:50 5.38102 103.10436 28 ft 0 kts 226°
2026-05-05 08:53 5.38081 103.10413 28 ft 8 kts 227°
2026-05-05 08:53 5.38021 103.10353 28 ft 16 kts 225°
2026-05-05 08:53 5.38023 103.10255 27 ft 11 kts 310°
2026-05-05 08:53 5.38032 103.10245 27 ft 0 kts 312°
2026-05-05 08:57 5.38034 103.10242 27 ft 3 kts 312°
2026-05-05 08:57 5.38062 103.10202 28 ft 11 kts 304°
2026-05-05 08:58 5.38039 103.10112 29 ft 19 kts 218°
2026-05-05 08:58 5.37923 103.09998 29 ft 28 kts 225°
2026-05-05 08:58 5.37770 103.09841 28 ft 35 kts 226°
2026-05-05 08:58 5.37576 103.09653 28 ft 42 kts 224°
2026-05-05 08:59 5.37396 103.09480 28 ft 34 kts 223°
2026-05-05 08:59 5.37212 103.09297 28 ft 41 kts 224°
2026-05-05 08:59 5.37052 103.09159 28 ft 27 kts 203°
2026-05-05 08:59 5.36931 103.09082 28 ft 14 kts 270°
2026-05-05 09:00 5.36985 103.09072 28 ft 10 kts 39°
2026-05-05 09:00 5.36999 103.09084 28 ft 0 kts 42°
2026-05-05 09:00 5.36999 103.09085 28 ft 0 kts 42°
2026-05-05 09:03 5.37000 103.09085 28 ft 3 kts 42°
2026-05-05 09:03 5.37211 103.09295 29 ft 90 kts 44°
2026-05-05 09:03 5.37860 103.09930 29 ft 166 kts 44°
2026-05-05 09:03 5.38751 103.10821 636 ft 182 kts 44°
2026-05-05 09:04 5.39637 103.11699 1551 ft 177 kts 46°
2026-05-05 09:04 5.40747 103.12337 1921 ft 200 kts
2026-05-05 09:04 5.42168 103.11987 2311 ft 232 kts 325°
2026-05-05 09:04 5.43334 103.10735 2737 ft 258 kts 305°
2026-05-05 09:05 5.44283 103.09142 3404 ft 271 kts 298°
2026-05-05 09:05 5.45167 103.07450 4298 ft 275 kts 297°
2026-05-05 09:05 5.46020 103.05750 5184 ft 278 kts 291°
2026-05-05 09:05 5.46400 103.03843 6017 ft 283 kts 270°
2026-05-05 09:06 5.46087 103.01894 6802 ft 287 kts 249°
2026-05-05 09:06 5.45086 103.00160 7574 ft 290 kts 226°
2026-05-05 09:06 5.43621 102.98742 8381 ft 294 kts 221°
2026-05-05 09:06 5.42108 102.97341 9204 ft 297 kts 221°
2026-05-05 09:07 5.40570 102.95923 9951 ft 304 kts 220°
2026-05-05 09:07 5.38948 102.94429 10237 ft 327 kts 220°
2026-05-05 09:07 5.37222 102.92837 10580 ft 345 kts 221°
2026-05-05 09:07 5.35499 102.91112 11211 ft 352 kts 229°
2026-05-05 09:08 5.34045 102.89111 11940 ft 356 kts 233°
2026-05-05 09:08 5.32614 102.87065 12646 ft 360 kts 233°
2026-05-05 09:08 5.31164 102.84999 13284 ft 365 kts 233°
2026-05-05 09:08 5.29697 102.82907 13926 ft 368 kts 234°
2026-05-05 09:09 5.28216 102.80798 14527 ft 371 kts 233°
2026-05-05 09:09 5.26741 102.78698 15081 ft 375 kts 233°
2026-05-05 09:09 5.25210 102.76514 15650 ft 379 kts 234°
2026-05-05 09:09 5.23711 102.74370 16252 ft 382 kts 234°
2026-05-05 09:10 5.22168 102.72182 16836 ft 385 kts 231°
2026-05-05 09:10 5.20358 102.70194 17367 ft 388 kts 220°
2026-05-05 09:10 5.18185 102.68587 17930 ft 389 kts 209°
2026-05-05 09:10 5.15783 102.67311 18426 ft 392 kts 206°
2026-05-05 09:11 5.13347 102.66042 18918 ft 395 kts 206°
2026-05-05 09:11 5.10902 102.64764 19385 ft 398 kts 206°
2026-05-05 09:11 5.08440 102.63474 19874 ft 400 kts 206°
2026-05-05 09:11 5.05962 102.62171 20338 ft 403 kts 206°
2026-05-05 09:12 5.03467 102.60856 20800 ft 406 kts 206°
2026-05-05 09:12 5.00962 102.59536 21256 ft 409 kts 206°
2026-05-05 09:12 4.98359 102.58359 21688 ft 410 kts 197°
2026-05-05 09:12 4.95589 102.57724 22114 ft 411 kts 185°
2026-05-05 09:13 4.92724 102.57677 22546 ft 412 kts 173°
2026-05-05 09:13 4.89921 102.58224 22965 ft 413 kts 161°
2026-05-05 09:13 4.87217 102.59255 23375 ft 415 kts 157°
2026-05-05 09:13 4.84523 102.60339 23728 ft 417 kts 157°
2026-05-05 09:14 4.81853 102.61408 24068 ft 419 kts 157°
2026-05-05 09:14 4.79133 102.62494 24434 ft 421 kts 157°
2026-05-05 09:14 4.76401 102.63582 24801 ft 423 kts 157°
2026-05-05 09:14 4.73660 102.64672 25161 ft 425 kts 157°
2026-05-05 09:15 4.70895 102.65772 25516 ft 427 kts 157°
2026-05-05 09:15 4.68127 102.66872 25865 ft 429 kts 157°
2026-05-05 09:15 4.65350 102.67976 26218 ft 431 kts 157°
2026-05-05 09:15 4.62550 102.69091 26562 ft 433 kts 157°
2026-05-05 09:16 4.59746 102.70210 26890 ft 435 kts 157°
2026-05-05 09:16 4.56925 102.71333 27219 ft 437 kts 158°
2026-05-05 09:16 4.54092 102.72461 27531 ft 439 kts 158°
2026-05-05 09:16 4.51260 102.73589 27851 ft 441 kts 158°
2026-05-05 09:17 4.48389 102.74733 28171 ft 443 kts 158°
2026-05-05 09:17 4.45514 102.75880 28490 ft 445 kts 157°
2026-05-05 09:17 4.42668 102.77013 28741 ft 447 kts 158°
2026-05-05 09:18 4.37010 102.79267 28805 ft 424 kts 157°
2026-05-05 09:18 4.31575 102.81420 28804 ft 418 kts 157°
2026-05-05 09:19 4.26168 102.83571 28798 ft 418 kts 157°
2026-05-05 09:19 4.20755 102.85732 28797 ft 417 kts 157°
2026-05-05 09:20 4.15381 102.87875 28796 ft 416 kts 157°
2026-05-05 09:20 4.10033 102.90004 28790 ft 416 kts 157°
2026-05-05 09:21 4.04669 102.92137 28782 ft 416 kts 158°
2026-05-05 09:21 3.99274 102.94284 28773 ft 416 kts 157°
2026-05-05 09:22 3.93900 102.96425 28773 ft 416 kts 157°
2026-05-05 09:22 3.88514 102.98572 28770 ft 416 kts 157°
2026-05-05 09:23 3.83129 103.00711 28774 ft 416 kts 157°
2026-05-05 09:23 3.77737 103.02850 28772 ft 417 kts 157°
2026-05-05 09:24 3.72342 103.04985 28774 ft 416 kts 158°
2026-05-05 09:24 3.66986 103.07109 28778 ft 417 kts 157°
2026-05-05 09:25 3.61599 103.09254 28777 ft 416 kts 157°
2026-05-05 09:25 3.56213 103.11402 28783 ft 416 kts 157°
2026-05-05 09:26 3.50831 103.13544 28782 ft 416 kts 157°
2026-05-05 09:26 3.45441 103.15686 28783 ft 416 kts 157°
2026-05-05 09:27 3.40057 103.17817 28783 ft 416 kts 157°
2026-05-05 09:27 3.34710 103.19938 28780 ft 416 kts 158°
2026-05-05 09:28 3.29485 103.22377 28784 ft 414 kts 145°
2026-05-05 09:28 3.25264 103.26254 28784 ft 413 kts 132°
2026-05-05 09:29 3.21317 103.30442 28781 ft 413 kts 133°
2026-05-05 09:29 3.17370 103.34613 28784 ft 413 kts 133°
2026-05-05 09:30 3.13417 103.38798 28791 ft 412 kts 133°
2026-05-05 09:30 3.09475 103.42973 28793 ft 412 kts 133°
2026-05-05 09:31 3.05560 103.47117 28792 ft 412 kts 133°
2026-05-05 09:31 3.01608 103.51302 28794 ft 412 kts 133°
2026-05-05 09:32 2.97683 103.55467 28790 ft 413 kts 133°
2026-05-05 09:32 2.93655 103.59739 28815 ft 433 kts 133°
2026-05-05 09:33 2.89259 103.63962 28813 ft 442 kts 144°
2026-05-05 09:33 2.86624 103.65457 28675 ft 433 kts 154°
2026-05-05 09:33 2.83876 103.66699 28058 ft 429 kts 155°
2026-05-05 09:33 2.81172 103.67904 27455 ft 427 kts 155°
2026-05-05 09:34 2.78436 103.69119 26849 ft 424 kts 155°
2026-05-05 09:34 2.75799 103.70289 26259 ft 421 kts 155°
2026-05-05 09:34 2.73096 103.71492 25670 ft 419 kts 154°
2026-05-05 09:34 2.70447 103.72680 25090 ft 416 kts 154°
2026-05-05 09:35 2.67819 103.73877 24544 ft 414 kts 154°
2026-05-05 09:35 2.62610 103.76271 23453 ft 409 kts 154°
2026-05-05 09:35 2.60021 103.77465 22816 ft 407 kts 154°
2026-05-05 09:36 2.57488 103.78631 22195 ft 405 kts 154°
2026-05-05 09:36 2.54917 103.79813 21589 ft 404 kts 154°
2026-05-05 09:36 2.52364 103.80981 20968 ft 402 kts 154°
2026-05-05 09:36 2.49817 103.82146 20368 ft 401 kts 154°
2026-05-05 09:37 2.47285 103.83304 19785 ft 399 kts 154°
2026-05-05 09:37 2.44762 103.84458 19223 ft 398 kts 154°
2026-05-05 09:37 2.42245 103.85604 18665 ft 396 kts 155°
2026-05-05 09:37 2.40514 103.86204 18294 ft 397 kts 165°
2026-05-05 09:38 2.36869 103.86453 17472 ft 399 kts 185°
2026-05-05 09:38 2.35036 103.86084 17064 ft 399 kts 194°
2026-05-05 09:38 2.31509 103.85050 16253 ft 398 kts 195°
2026-05-05 09:38 2.29713 103.84519 15840 ft 397 kts 195°
2026-05-05 09:39 2.27097 103.83749 15261 ft 396 kts 195°
2026-05-05 09:39 2.24451 103.82973 14679 ft 395 kts 195°
2026-05-05 09:39 2.21817 103.82205 14112 ft 394 kts 195°
2026-05-05 09:39 2.19192 103.81440 13544 ft 392 kts 195°
2026-05-05 09:40 2.16563 103.80673 12771 ft 394 kts 195°
2026-05-05 09:40 2.13904 103.79899 12004 ft 400 kts 195°
2026-05-05 09:40 2.11234 103.79125 11262 ft 399 kts 195°
2026-05-05 09:40 2.08590 103.78260 10527 ft 397 kts 204°
2026-05-05 09:41 2.06280 103.76778 9811 ft 392 kts 221°
2026-05-05 09:41 2.04590 103.74739 9343 ft 369 kts 237°
2026-05-05 09:41 2.03304 103.72724 9016 ft 327 kts 237°
2026-05-05 09:41 2.02169 103.70992 8376 ft 274 kts 236°
2026-05-05 09:42 2.01171 103.69491 7639 ft 247 kts 236°
2026-05-05 09:42 2.00249 103.68116 6898 ft 230 kts 236°
2026-05-05 09:42 1.99376 103.66813 6179 ft 221 kts 236°
2026-05-05 09:42 1.98538 103.65555 5421 ft 214 kts 236°
2026-05-05 09:43 1.97722 103.64324 4677 ft 211 kts 237°
2026-05-05 09:43 1.96914 103.63104 3914 ft 209 kts 237°
2026-05-05 09:43 1.96132 103.61918 3471 ft 195 kts 237°
2026-05-05 09:43 1.95418 103.60835 3150 ft 182 kts 237°
2026-05-05 09:44 1.94734 103.59796 2787 ft 176 kts 236°
2026-05-05 09:44 1.94076 103.58801 2429 ft 172 kts 235°
2026-05-05 09:44 1.93244 103.57948 2080 ft 171 kts 213°
2026-05-05 09:44 1.92200 103.57439 2043 ft 166 kts 195°
2026-05-05 09:45 1.91055 103.57318 2036 ft 165 kts 170°
2026-05-05 09:45 1.89959 103.57587 2039 ft 164 kts 161°
2026-05-05 09:45 1.88875 103.57933 2039 ft 164 kts 160°
2026-05-05 09:45 1.87813 103.58301 2027 ft 155 kts 159°
2026-05-05 09:46 1.86817 103.58657 2030 ft 149 kts 157°
2026-05-05 09:46 1.85846 103.59008 2036 ft 148 kts 156°
2026-05-05 09:46 1.84891 103.59354 2038 ft 144 kts 160°
2026-05-05 09:46 1.83953 103.59696 2038 ft 144 kts 160°
2026-05-05 09:47 1.83021 103.60035 2039 ft 142 kts 160°
2026-05-05 09:47 1.82079 103.60378 2034 ft 143 kts 160°
2026-05-05 09:47 1.81143 103.60719 2033 ft 143 kts 160°
2026-05-05 09:47 1.80210 103.61058 2034 ft 143 kts 161°
2026-05-05 09:48 1.79279 103.61397 2028 ft 139 kts 160°
2026-05-05 09:48 1.78381 103.61725 2030 ft 137 kts 160°
2026-05-05 09:48 1.77492 103.62048 2035 ft 137 kts 160°
2026-05-05 09:48 1.76597 103.62374 2034 ft 137 kts 160°
2026-05-05 09:49 1.75698 103.62701 2036 ft 139 kts 160°
2026-05-05 09:49 1.74800 103.63028 2032 ft 138 kts 160°
2026-05-05 09:49 1.73882 103.63363 1923 ft 139 kts 161°
2026-05-05 09:49 1.72997 103.63685 1689 ft 136 kts 160°
2026-05-05 09:50 1.72107 103.64009 1484 ft 136 kts 160°
2026-05-05 09:50 1.71208 103.64336 1295 ft 136 kts 160°
2026-05-05 09:50 1.70329 103.64656 1121 ft 135 kts 159°
2026-05-05 09:50 1.69439 103.64980 955 ft 138 kts 159°
2026-05-05 09:51 1.68525 103.65313 779 ft 143 kts 159°
2026-05-05 09:51 1.67579 103.65658 615 ft 144 kts 158°
2026-05-05 09:51 1.66624 103.66006 419 ft 147 kts 156°
2026-05-05 09:51 1.65667 103.66349 250 ft 146 kts 157°
2026-05-05 09:52 1.64765 103.66678 208 ft 128 kts 157°
2026-05-05 09:52 1.64264 103.66871 206 ft 34 kts 162°
2026-05-05 09:52 1.64119 103.66916 210 ft 17 kts 164°
2026-05-05 09:52 1.63985 103.66965 213 ft 24 kts 159°
2026-05-05 09:53 1.63800 103.67034 210 ft 30 kts 161°
2026-05-05 09:53 1.63717 103.66976 209 ft 18 kts 254°
2026-05-05 09:53 1.63710 103.66950 200 ft 0 kts 253°
2026-05-05 09:57 1.63703 103.66925 206 ft 7 kts 253°
2026-05-05 09:57 1.63681 103.66857 203 ft 11 kts 251°
2026-05-05 09:57 1.63708 103.66795 213 ft 12 kts 314°
2026-05-05 09:58 1.63705 103.66718 209 ft 7 kts 251°
2026-05-05 09:58 1.63701 103.66706 204 ft 0 kts 251°